| time (UTC) | temp F | wind direction | speed MPH | gust MPH | rain 1hr in | rain 24hr in | rain mn in | humidity % | barometer mb |
| 20260903165700 | 87 | 229 | 4.0 | 6.0 | 0.00 | 0.00 | 0.00 | 68 | 1015.8 |
| 20260903165200 | 86 | 279 | 4.0 | 5.0 | 0.00 | 0.00 | 0.00 | 69 | 1015.8 |
| 20260903164700 | 86 | 268 | 4.0 | 6.0 | 0.00 | 0.00 | 0.00 | 71 | 1015.8 |
| 20260903164202 | 86 | 290 | 4.0 | 7.0 | 0.00 | 0.00 | 0.00 | 70 | 1015.9 |
| 20260903163700 | 86 | 276 | 2.0 | 3.0 | 0.00 | 0.00 | 0.00 | 71 | 1015.9 |
| 20260903163200 | 86 | 250 | 4.0 | 5.0 | 0.00 | 0.00 | 0.00 | 71 | 1015.9 |
| 20260903162701 | 86 | 219 | 2.0 | 4.0 | 0.00 | 0.00 | 0.00 | 73 | 1015.9 |
| 20260903162202 | 86 | 268 | 5.0 | 8.0 | 0.00 | 0.00 | 0.00 | 73 | 1015.9 |
| 20260903161700 | 85 | 266 | 4.0 | 5.0 | 0.00 | 0.00 | 0.00 | 74 | 1016.0 |
| 20260903161201 | 85 | 253 | 4.0 | 8.0 | 0.00 | 0.00 | 0.00 | 75 | 1016.0 |
| 20260903160701 | 85 | 237 | 2.0 | 4.0 | 0.00 | 0.00 | 0.00 | 76 | 1016.0 |
| 20260903160201 | 85 | 262 | 4.0 | 6.0 | 0.00 | 0.00 | 0.00 | 77 | 1015.9 |
| 20260903155700 | 85 | 253 | 3.0 | 5.0 | 0.00 | 0.00 | 0.00 | 78 | 1015.8 |
| 20260903155200 | 84 | 212 | 3.0 | 4.0 | 0.00 | 0.00 | 0.00 | 77 | 1015.8 |
| 20260903154702 | 84 | 247 | 4.0 | 5.0 | 0.00 | 0.00 | 0.00 | 78 | 1015.9 |
| 20260903154200 | 83 | 191 | 3.0 | 4.0 | 0.00 | 0.00 | 0.00 | 79 | 1015.9 |
| 20260903153700 | 83 | 250 | 3.0 | 4.0 | 0.00 | 0.00 | 0.00 | 81 | 1015.8 |
| 20260903153202 | 82 | 299 | 2.0 | 4.0 | 0.00 | 0.00 | 0.00 | 83 | 1015.8 |
| 20260903152701 | 82 | 291 | 3.0 | 4.0 | 0.00 | 0.00 | 0.00 | 85 | 1015.7 |
| 20260903152200 | 82 | 259 | 3.0 | 4.0 | 0.00 | 0.00 | 0.00 | 84 | 1015.7 |
| 20260903151700 | 82 | 312 | 3.0 | 4.0 | 0.00 | 0.00 | 0.00 | 87 | 1015.8 |
| 20260903151201 | 82 | 251 | 5.0 | 7.0 | 0.00 | 0.00 | 0.00 | 86 | 1015.7 |
| 20260903150704 | 82 | 260 | 5.0 | 8.0 | 0.00 | 0.00 | 0.00 | 87 | 1015.7 |
| 20260903150200 | 82 | 248 | 3.0 | 4.0 | 0.00 | 0.00 | 0.00 | 87 | 1015.8 |
| 20260903145700 | 82 | 250 | 0.0 | 2.0 | 0.00 | 0.00 | 0.00 | 88 | 1015.7 |
| 20260903145200 | 82 | 185 | 3.0 | 5.0 | 0.00 | 0.00 | 0.00 | 90 | 1015.8 |
| 20260903144701 | 82 | 212 | 5.0 | 7.0 | 0.00 | 0.00 | 0.00 | 89 | 1015.7 |
| 20260903144201 | 82 | 229 | 4.0 | 6.0 | 0.00 | 0.00 | 0.00 | 88 | 1015.7 |
| 20260903143700 | 82 | 195 | 3.0 | 5.0 | 0.00 | 0.00 | 0.00 | 88 | 1015.7 |
| 20260903143200 | 82 | 212 | 3.0 | 4.0 | 0.00 | 0.00 | 0.00 | 90 | 1015.7 |
| 20260903142701 | 82 | 217 | 3.0 | 4.0 | 0.00 | 0.00 | 0.00 | 91 | 1015.7 |
| 20260903142200 | 82 | 178 | 3.0 | 4.0 | 0.00 | 0.00 | 0.00 | 90 | 1015.7 |
| 20260903141700 | 81 | 182 | 3.0 | 4.0 | 0.00 | 0.00 | 0.00 | 91 | 1015.8 |
| 20260903141201 | 81 | 155 | 4.0 | 5.0 | 0.00 | 0.00 | 0.00 | 91 | 1015.8 |
| 20260903140701 | 81 | 146 | 1.0 | 2.0 | 0.00 | 0.00 | 0.00 | 92 | 1015.8 |
| 20260903140201 | 80 | 161 | 3.0 | 4.0 | 0.00 | 0.00 | 0.00 | 91 | 1015.7 |
| 20260903135700 | 81 | 144 | 1.0 | 2.0 | 0.00 | 0.00 | 0.00 | 92 | 1015.8 |
| 20260903135200 | 80 | 105 | 3.0 | 4.0 | 0.00 | 0.00 | 0.00 | 92 | 1015.8 |
| 20260903134701 | 80 | 158 | 2.0 | 4.0 | 0.00 | 0.00 | 0.00 | 92 | 1015.8 |
| 20260903134200 | 80 | 162 | 4.0 | 5.0 | 0.00 | 0.00 | 0.00 | 93 | 1015.9 |
| 20260903133701 | 80 | 175 | 2.0 | 4.0 | 0.00 | 0.00 | 0.00 | 94 | 1015.9 |
| 20260903133200 | 80 | 126 | 2.0 | 4.0 | 0.00 | 0.00 | 0.00 | 94 | 1015.9 |
| 20260903132700 | 79 | 170 | 3.0 | 4.0 | 0.00 | 0.00 | 0.00 | 94 | 1015.9 |
| 20260903132201 | 79 | 176 | 3.0 | 4.0 | 0.00 | 0.00 | 0.00 | 95 | 1015.8 |
| 20260903131700 | 79 | 178 | 2.0 | 4.0 | 0.00 | 0.00 | 0.00 | 95 | 1015.8 |
| 20260903131201 | 79 | 151 | 2.0 | 4.0 | 0.00 | 0.00 | 0.00 | 95 | 1015.8 |
| 20260903130700 | 78 | 122 | 2.0 | 3.0 | 0.00 | 0.00 | 0.00 | 95 | 1015.7 |
| 20260903130204 | 78 | 105 | 2.0 | 2.0 | 0.00 | 0.00 | 0.00 | 96 | 1015.6 |
| 20260903125701 | 78 | 105 | 2.0 | 3.0 | 0.00 | 0.00 | 0.00 | 96 | 1015.5 |
| 20260903125201 | 78 | 115 | 2.0 | 2.0 | 0.00 | 0.00 | 0.00 | 96 | 1015.6 |
| 20260903124700 | 78 | 125 | 1.0 | 1.0 | 0.00 | 0.00 | 0.00 | 96 | 1015.6 |
| 20260903124200 | 77 | 118 | 2.0 | 2.0 | 0.00 | 0.00 | 0.00 | 96 | 1015.5 |
| 20260903123702 | 77 | 137 | 2.0 | 3.0 | 0.00 | 0.00 | 0.00 | 96 | 1015.5 |
| 20260903122748 | 77 | 166 | 1.0 | 1.0 | 0.00 | 0.00 | 0.00 | 96 | 1015.5 |
| 20260903122204 | 77 | 144 | 2.0 | 4.0 | 0.00 | 0.00 | 0.00 | 96 | 1015.4 |
| 20260903121700 | 76 | 231 | 1.0 | 2.0 | 0.00 | 0.00 | 0.00 | 96 | 1015.3 |
| 20260903121201 | 76 | 130 | 1.0 | 3.0 | 0.00 | 0.00 | 0.00 | 96 | 1015.2 |
| 20260903120701 | 76 | 156 | 2.0 | 3.0 | 0.00 | 0.00 | 0.00 | 96 | 1015.2 |
| 20260903120200 | 76 | 360 | 1.0 | 2.0 | 0.00 | 0.00 | 0.00 | 96 | 1015.2 |
| 20260903115700 | 76 | 131 | 1.0 | 1.0 | 0.00 | 0.00 | 0.00 | 95 | 1015.1 |
| 20260903115200 | 76 | 101 | 1.0 | 1.0 | 0.00 | 0.00 | 0.00 | 95 | 1015.1 |
| 20260903114701 | 76 | 115 | 1.0 | 1.0 | 0.00 | 0.00 | 0.00 | 95 | 1015.1 |
| 20260903114201 | 76 | 142 | 0.0 | 1.0 | 0.00 | 0.00 | 0.00 | 95 | 1015.0 |
| 20260903113701 | 76 | 202 | 1.0 | 1.0 | 0.00 | 0.00 | 0.00 | 95 | 1015.0 |
| 20260903113201 | 76 | 125 | 1.0 | 1.0 | 0.00 | 0.00 | 0.00 | 95 | 1015.0 |
| 20260903112700 | 76 | 115 | 1.0 | 1.0 | 0.00 | 0.00 | 0.00 | 95 | 1015.0 |
| 20260903112200 | 76 | 126 | 1.0 | 1.0 | 0.00 | 0.00 | 0.00 | 95 | 1015.0 |
| 20260903111701 | 76 | 101 | 0.0 | 1.0 | 0.00 | 0.00 | 0.00 | 95 | 1015.0 |
| 20260903111200 | 76 | 90 | 1.0 | 1.0 | 0.00 | 0.00 | 0.00 | 95 | 1015.0 |
| 20260903110700 | 76 | 18 | 1.0 | 1.0 | 0.00 | 0.00 | 0.00 | 95 | 1014.9 |
| 20260903110200 | 76 | 315 | 1.0 | 2.0 | 0.00 | 0.00 | 0.00 | 95 | 1014.8 |
| 20260903105700 | 76 | 190 | 1.0 | 2.0 | 0.00 | 0.00 | 0.00 | 95 | 1014.8 |
| 20260903105201 | 76 | 119 | 1.0 | 2.0 | 0.00 | 0.00 | 0.00 | 95 | 1014.7 |
| 20260903104700 | 76 | 117 | 1.0 | 1.0 | 0.00 | 0.00 | 0.00 | 95 | 1014.7 |
| 20260903104200 | 76 | 49 | 1.0 | 2.0 | 0.00 | 0.00 | 0.00 | 95 | 1014.7 |
| 20260903103700 | 76 | 140 | 2.0 | 3.0 | 0.00 | 0.00 | 0.00 | 95 | 1014.7 |
| 20260903103200 | 77 | 127 | 1.0 | 2.0 | 0.00 | 0.00 | 0.00 | 95 | 1014.6 |
| 20260903102700 | 77 | 156 | 2.0 | 3.0 | 0.00 | 0.00 | 0.00 | 95 | 1014.5 |
| 20260903102201 | 77 | 64 | 1.0 | 1.0 | 0.00 | 0.00 | 0.00 | 95 | 1014.4 |
| 20260903101700 | 77 | 34 | 2.0 | 2.0 | 0.00 | 0.00 | 0.00 | 95 | 1014.4 |
| 20260903101200 | 76 | 113 | 1.0 | 1.0 | 0.00 | 0.00 | 0.00 | 95 | 1014.3 |
| 20260903100700 | 76 | 52 | 1.0 | 1.0 | 0.00 | 0.00 | 0.00 | 95 | 1014.3 |
| 20260903100200 | 76 | 292 | 1.0 | 2.0 | 0.00 | 0.00 | 0.00 | 95 | 1014.4 |
| 20260903095701 | 76 | 171 | 0.0 | 1.0 | 0.00 | 0.00 | 0.00 | 95 | 1014.4 |
| 20260903095201 | 76 | 333 | 1.0 | 2.0 | 0.00 | 0.00 | 0.00 | 95 | 1014.4 |
| 20260903094701 | 76 | 102 | 1.0 | 1.0 | 0.00 | 0.00 | 0.00 | 95 | 1014.5 |
| 20260903094201 | 76 | 20 | 1.0 | 2.0 | 0.00 | 0.00 | 0.00 | 95 | 1014.5 |
| 20260903093700 | 76 | 212 | 2.0 | 3.0 | 0.00 | 0.00 | 0.00 | 95 | 1014.4 |
| 20260903093200 | 76 | 202 | 1.0 | 1.0 | 0.00 | 0.00 | 0.00 | 95 | 1014.4 |
| 20260903092700 | 76 | 225 | 1.0 | 1.0 | 0.00 | 0.00 | 0.00 | 95 | 1014.4 |
| 20260903092200 | 77 | 227 | 1.0 | 1.0 | 0.00 | 0.00 | 0.00 | 95 | 1014.4 |
| 20260903091700 | 77 | 262 | 1.0 | 3.0 | 0.00 | 0.00 | 0.00 | 95 | 1014.4 |
| 20260903091200 | 77 | 9 | 1.0 | 1.0 | 0.00 | 0.00 | 0.00 | 95 | 1014.4 |
| 20260903090700 | 77 | 5 | 1.0 | 1.0 | 0.00 | 0.00 | 0.00 | 95 | 1014.4 |
| 20260903090200 | 77 | 73 | 1.0 | 1.0 | 0.00 | 0.00 | 0.00 | 95 | 1014.5 |
| 20260903085701 | 77 | 86 | 2.0 | 2.0 | 0.00 | 0.00 | 0.00 | 95 | 1014.5 |
| 20260903085200 | 77 | 122 | 1.0 | 1.0 | 0.00 | 0.00 | 0.00 | 95 | 1014.5 |
| 20260903084700 | 77 | 146 | 1.0 | 3.0 | 0.00 | 0.00 | 0.00 | 95 | 1014.5 |
| 20260903084201 | 77 | 95 | 1.0 | 1.0 | 0.00 | 0.00 | 0.00 | 95 | 1014.4 |
| 20260903083700 | 77 | 124 | 1.0 | 2.0 | 0.00 | 0.00 | 0.00 | 95 | 1014.4 |
| 20260903083201 | 77 | 51 | 1.0 | 2.0 | 0.00 | 0.00 | 0.00 | 95 | 1014.4 |
| 20260903082701 | 77 | 89 | 1.0 | 1.0 | 0.00 | 0.00 | 0.00 | 95 | 1014.4 |
| 20260903082201 | 77 | 83 | 1.0 | 2.0 | 0.00 | 0.00 | 0.00 | 95 | 1014.3 |
| 20260903081701 | 76 | 61 | 2.0 | 3.0 | 0.00 | 0.00 | 0.00 | 95 | 1014.2 |
| 20260903081201 | 76 | 145 | 2.0 | 3.0 | 0.00 | 0.00 | 0.00 | 95 | 1014.1 |
| 20260903080700 | 76 | 262 | 2.0 | 2.0 | 0.00 | 0.00 | 0.00 | 95 | 1014.2 |
| 20260903080200 | 76 | 59 | 2.0 | 3.0 | 0.00 | 0.00 | 0.00 | 95 | 1014.3 |
| 20260903075700 | 76 | 112 | 1.0 | 1.0 | 0.00 | 0.00 | 0.00 | 95 | 1014.2 |
| 20260903075201 | 76 | 100 | 1.0 | 1.0 | 0.00 | 0.00 | 0.00 | 95 | 1014.2 |
| 20260903074701 | 76 | 241 | 1.0 | 1.0 | 0.00 | 0.00 | 0.00 | 95 | 1014.3 |
| 20260903074200 | 76 | 34 | 1.0 | 1.0 | 0.00 | 0.00 | 0.00 | 95 | 1014.2 |
| 20260903073700 | 76 | 40 | 2.0 | 2.0 | 0.00 | 0.00 | 0.00 | 95 | 1014.2 |
| 20260903073201 | 77 | 65 | 2.0 | 2.0 | 0.00 | 0.00 | 0.00 | 95 | 1014.3 |
| 20260903072700 | 77 | 79 | 1.0 | 2.0 | 0.00 | 0.00 | 0.00 | 95 | 1014.3 |
| 20260903072201 | 76 | 52 | 1.0 | 2.0 | 0.00 | 0.00 | 0.00 | 95 | 1014.3 |
| 20260903071701 | 76 | 87 | 1.0 | 1.0 | 0.00 | 0.00 | 0.00 | 95 | 1014.3 |
| 20260903071201 | 76 | 122 | 2.0 | 3.0 | 0.00 | 0.00 | 0.00 | 95 | 1014.3 |
| 20260903070700 | 76 | 153 | 2.0 | 2.0 | 0.00 | 0.00 | 0.00 | 95 | 1014.3 |
| 20260903070200 | 76 | 151 | 3.0 | 4.0 | 0.00 | 0.00 | 0.00 | 95 | 1014.3 |
| 20260903065700 | 76 | 163 | 2.0 | 3.0 | 0.00 | 0.00 | 0.00 | 95 | 1014.2 |
| 20260903065200 | 76 | 159 | 2.0 | 2.0 | 0.00 | 0.00 | 0.00 | 95 | 1014.3 |
| 20260903064701 | 76 | 173 | 2.0 | 2.0 | 0.00 | 0.00 | 0.00 | 95 | 1014.3 |
| 20260903064200 | 76 | 166 | 3.0 | 4.0 | 0.00 | 0.00 | 0.00 | 95 | 1014.3 |
| 20260903063700 | 76 | 162 | 4.0 | 4.0 | 0.00 | 0.00 | 0.00 | 95 | 1014.2 |
| 20260903063200 | 76 | 185 | 3.0 | 4.0 | 0.00 | 0.00 | 0.00 | 95 | 1014.1 |
| 20260903062700 | 76 | 182 | 2.0 | 3.0 | 0.00 | 0.00 | 0.00 | 95 | 1014.1 |
| 20260903062200 | 76 | 158 | 2.0 | 4.0 | 0.00 | 0.00 | 0.00 | 95 | 1014.2 |
| 20260903061701 | 76 | 160 | 2.0 | 2.0 | 0.00 | 0.00 | 0.00 | 95 | 1014.2 |
| 20260903061201 | 76 | 166 | 2.0 | 3.0 | 0.00 | 0.00 | 0.00 | 95 | 1014.2 |
| 20260903060701 | 76 | 176 | 1.0 | 2.0 | 0.00 | 0.00 | 0.00 | 95 | 1014.3 |
| 20260903060201 | 76 | 175 | 2.0 | 3.0 | 0.00 | 0.00 | 0.00 | 95 | 1014.4 |
| 20260903055701 | 76 | 157 | 2.0 | 3.0 | 0.00 | 0.00 | 0.00 | 95 | 1014.4 |
| 20260903055201 | 76 | 170 | 4.0 | 4.0 | 0.00 | 0.00 | 0.00 | 95 | 1014.4 |
| 20260903054700 | 76 | 174 | 4.0 | 5.0 | 0.00 | 0.00 | 0.00 | 95 | 1014.4 |
| 20260903054200 | 76 | 171 | 3.0 | 4.0 | 0.00 | 0.00 | 0.00 | 95 | 1014.4 |
| 20260903053701 | 76 | 128 | 2.0 | 2.0 | 0.00 | 0.00 | 0.00 | 95 | 1014.4 |
| 20260903052714 | 76 | 150 | 2.0 | 4.0 | 0.00 | 0.00 | 0.00 | 95 | 1014.2 |
| 20260903052200 | 76 | 154 | 2.0 | 3.0 | 0.00 | 0.00 | 0.00 | 95 | 1014.2 |
| 20260903051700 | 76 | 143 | 1.0 | 1.0 | 0.00 | 0.00 | 0.00 | 95 | 1014.1 |
| 20260903051200 | 76 | 167 | 2.0 | 2.0 | 0.00 | 0.00 | 0.00 | 95 | 1014.0 |
| 20260903050700 | 75 | 151 | 1.0 | 2.0 | 0.00 | 0.00 | 0.00 | 95 | 1014.0 |
| 20260903050200 | 75 | 145 | 2.0 | 3.0 | 0.00 | 0.00 | 0.00 | 95 | 1014.0 |
| 20260903045701 | 75 | 158 | 2.0 | 3.0 | 0.00 | 0.00 | 0.46 | 95 | 1014.0 |
| 20260903045200 | 75 | 128 | 1.0 | 2.0 | 0.00 | 0.00 | 0.46 | 95 | 1014.0 |
| 20260903044701 | 75 | 159 | 1.0 | 2.0 | 0.00 | 0.00 | 0.46 | 95 | 1014.1 |
| 20260903044201 | 75 | 144 | 2.0 | 3.0 | 0.00 | 0.00 | 0.46 | 95 | 1014.2 |
| 20260903043701 | 75 | 150 | 1.0 | 1.0 | 0.00 | 0.00 | 0.46 | 95 | 1014.3 |
| 20260903043200 | 75 | 102 | 1.0 | 2.0 | 0.00 | 0.00 | 0.46 | 95 | 1014.3 |
| 20260903042700 | 75 | 133 | 1.0 | 1.0 | 0.00 | 0.00 | 0.46 | 95 | 1014.3 |
| 20260903042200 | 75 | 138 | 2.0 | 3.0 | 0.01 | 0.00 | 0.46 | 95 | 1014.4 |
| 20260903041700 | 75 | 143 | 1.0 | 2.0 | 0.01 | 0.00 | 0.46 | 95 | 1014.4 |
| 20260903041200 | 75 | 178 | 2.0 | 3.0 | 0.01 | 0.00 | 0.46 | 95 | 1014.5 |
| 20260903040700 | 75 | 151 | 2.0 | 2.0 | 0.02 | 0.00 | 0.46 | 95 | 1014.5 |
| 20260903040200 | 75 | 95 | 2.0 | 2.0 | 0.02 | 0.00 | 0.46 | 94 | 1014.6 |
| 20260903035702 | 74 | 152 | 1.0 | 2.0 | 0.03 | 0.00 | 0.49 | 94 | 1014.6 |
| 20260903035200 | 74 | 149 | 1.0 | 1.0 | 0.03 | 0.00 | 0.49 | 94 | 1014.7 |
| 20260903034700 | 74 | 241 | 1.0 | 2.0 | 0.03 | 0.00 | 0.49 | 94 | 1014.8 |
| 20260903034200 | 74 | 175 | 2.0 | 3.0 | 0.04 | 0.00 | 0.49 | 94 | 1014.8 |
| 20260903033702 | 74 | 170 | 2.0 | 3.0 | 0.04 | 0.00 | 0.49 | 94 | 1014.8 |
| 20260903033200 | 75 | 182 | 2.0 | 2.0 | 0.04 | 0.00 | 0.48 | 94 | 1014.8 |
| 20260903032700 | 74 | 170 | 1.0 | 2.0 | 0.04 | 0.00 | 0.48 | 94 | 1014.9 |
| 20260903032203 | 75 | 118 | 1.0 | 1.0 | 0.04 | 0.00 | 0.47 | 94 | 1015.0 |
| 20260903031700 | 75 | 177 | 1.0 | 2.0 | 0.04 | 0.00 | 0.47 | 94 | 1015.0 |
| 20260903031203 | 75 | 191 | 0.0 | 1.0 | 0.05 | 0.00 | 0.47 | 94 | 1015.0 |
| 20260903030700 | 75 | 91 | 0.0 | 1.0 | 0.05 | 0.00 | 0.47 | 94 | 1015.1 |
| 20260903030200 | 75 | 91 | 1.0 | 1.0 | 0.05 | 0.00 | 0.46 | 94 | 1015.1 |
| 20260903025700 | 75 | 101 | 1.0 | 1.0 | 0.05 | 0.00 | 0.48 | 94 | 1015.2 |
| 20260903025200 | 75 | 162 | 0.0 | 1.0 | 0.04 | 0.00 | 0.48 | 94 | 1015.2 |
| 20260903024700 | 75 | 196 | 1.0 | 2.0 | 0.04 | 0.00 | 0.47 | 94 | 1015.1 |
| 20260903024202 | 75 | 360 | 0.0 | 0.0 | 0.04 | 0.00 | 0.47 | 94 | 1015.0 |
| 20260903023701 | 75 | 104 | 1.0 | 1.0 | 0.05 | 0.00 | 0.46 | 94 | 1014.9 |
| 20260903023200 | 75 | 95 | 1.0 | 1.0 | 0.06 | 0.00 | 0.45 | 94 | 1014.9 |
| 20260903022700 | 75 | 360 | 0.0 | 0.0 | 0.06 | 0.00 | 0.45 | 94 | 1015.0 |
| 20260903022201 | 75 | 134 | 1.0 | 2.0 | 0.06 | 0.00 | 0.44 | 94 | 1014.9 |
| 20260903021700 | 75 | 119 | 0.0 | 1.0 | 0.07 | 0.00 | 0.44 | 94 | 1014.8 |
| 20260903021200 | 75 | 1 | 0.0 | 0.0 | 0.07 | 0.00 | 0.44 | 94 | 1014.8 |
| 20260903020701 | 75 | 196 | 1.0 | 2.0 | 0.07 | 0.00 | 0.43 | 94 | 1014.7 |
| 20260903020201 | 75 | 182 | 1.0 | 2.0 | 0.06 | 0.00 | 0.42 | 94 | 1014.7 |
| 20260903015700 | 75 | 360 | 0.0 | 0.0 | 0.06 | 0.00 | 0.44 | 94 | 1014.7 |
| 20260903015200 | 75 | 360 | 0.0 | 0.0 | 0.06 | 0.00 | 0.43 | 94 | 1014.6 |
| 20260903014701 | 74 | 360 | 0.0 | 0.0 | 0.06 | 0.00 | 0.43 | 94 | 1014.5 |
| 20260903014201 | 74 | 339 | 1.0 | 2.0 | 0.04 | 0.00 | 0.43 | 94 | 1014.5 |
| 20260903013700 | 74 | 124 | 1.0 | 1.0 | 0.04 | 0.00 | 0.43 | 94 | 1014.5 |
| 20260903013200 | 74 | 37 | 0.0 | 1.0 | 0.05 | 0.00 | 0.41 | 94 | 1014.4 |
| 20260903012701 | 74 | 4 | 1.0 | 1.0 | 0.09 | 0.00 | 0.41 | 93 | 1014.4 |
| 20260903012200 | 74 | 80 | 1.0 | 1.0 | 0.09 | 0.00 | 0.40 | 93 | 1014.4 |
| 20260903011701 | 74 | 360 | 0.0 | 0.0 | 0.19 | 0.00 | 0.43 | 93 | 1014.3 |
| 20260903011201 | 74 | 360 | 0.0 | 0.0 | 0.22 | 0.00 | 0.42 | 93 | 1014.3 |
| 20260903010700 | 74 | 247 | 1.0 | 2.0 | 0.22 | 0.00 | 0.41 | 93 | 1014.2 |
| 20260903010201 | 74 | 293 | 0.0 | 1.0 | 0.23 | 0.00 | 0.40 | 93 | 1014.2 |
| 20260903005700 | 74 | 202 | 1.0 | 2.0 | 0.25 | 0.00 | 0.41 | 93 | 1014.2 |
| 20260903005200 | 74 | 360 | 0.0 | 0.0 | 0.25 | 0.00 | 0.41 | 93 | 1014.2 |
| 20260903004700 | 74 | 102 | 1.0 | 2.0 | 0.29 | 0.00 | 0.41 | 93 | 1014.3 |
| 20260903004200 | 74 | 40 | 1.0 | 3.0 | 0.27 | 0.00 | 0.41 | 93 | 1014.5 |
| 20260903003700 | 74 | 81 | 1.0 | 2.0 | 0.26 | 0.00 | 0.41 | 93 | 1014.6 |
| 20260903003202 | 74 | 83 | 2.0 | 3.0 | 0.26 | 0.00 | 0.38 | 93 | 1014.6 |
| 20260903002701 | 74 | 77 | 4.0 | 6.0 | 0.26 | 0.00 | 0.38 | 92 | 1014.7 |
| 20260903002200 | 74 | 118 | 2.0 | 3.0 | 0.26 | 0.00 | 0.36 | 92 | 1014.8 |
| 20260903001700 | 74 | 95 | 3.0 | 4.0 | 0.25 | 0.00 | 0.37 | 91 | 1014.9 |
| 20260903001200 | 75 | 95 | 3.0 | 3.0 | 0.20 | 0.00 | 0.32 | 91 | 1014.9 |
| 20260903000700 | 75 | 150 | 4.0 | 6.0 | 0.08 | 0.00 | 0.24 | 90 | 1015.0 |
| 20260903000200 | 76 | 145 | 3.0 | 5.0 | 0.07 | 0.00 | 0.19 | 90 | 1015.0 |
| 20260902235700 | 77 | 171 | 4.0 | 5.0 | 0.07 | 0.00 | 0.19 | 89 | 1015.0 |
| 20260902235200 | 78 | 168 | 4.0 | 5.0 | 0.06 | 0.00 | 0.18 | 87 | 1015.0 |
| 20260902234701 | 80 | 179 | 6.0 | 7.0 | 0.04 | 0.00 | 0.17 | 84 | 1014.9 |
| 20260902234200 | 82 | 185 | 7.0 | 11.0 | 0.00 | 0.00 | 0.14 | 77 | 1015.2 |
| 20260902233700 | 82 | 207 | 5.0 | 8.0 | 0.00 | 0.00 | 0.12 | 77 | 1015.0 |
| 20260902233200 | 83 | 193 | 5.0 | 7.0 | 0.00 | 0.00 | 0.12 | 79 | 1015.0 |
| 20260902232700 | 83 | 204 | 2.0 | 5.0 | 0.00 | 0.00 | 0.12 | 77 | 1014.9 |
| 20260902232200 | 83 | 154 | 2.0 | 4.0 | 0.00 | 0.00 | 0.12 | 77 | 1014.5 |
| 20260902231700 | 83 | 123 | 1.0 | 3.0 | 0.00 | 0.00 | 0.12 | 77 | 1014.3 |
| 20260902231159 | 83 | 150 | 2.0 | 3.0 | 0.00 | 0.00 | 0.12 | 77 | 1014.3 |
| 20260902230700 | 83 | 102 | 3.0 | 5.0 | 0.00 | 0.00 | 0.12 | 77 | 1014.2 |
| 20260902230200 | 83 | 123 | 4.0 | 7.0 | 0.00 | 0.00 | 0.12 | 77 | 1014.1 |
| 20260902225700 | 83 | 131 | 4.0 | 7.0 | 0.00 | 0.00 | 0.12 | 77 | 1014.1 |
| 20260902225202 | 83 | 111 | 2.0 | 4.0 | 0.00 | 0.00 | 0.12 | 77 | 1014.1 |
| 20260902224701 | 83 | 157 | 3.0 | 5.0 | 0.00 | 0.00 | 0.12 | 77 | 1014.1 |
| 20260902224201 | 83 | 102 | 2.0 | 5.0 | 0.00 | 0.00 | 0.12 | 77 | 1014.0 |
| 20260902223701 | 83 | 130 | 3.0 | 3.0 | 0.00 | 0.00 | 0.12 | 77 | 1013.9 |
| 20260902223200 | 83 | 158 | 3.0 | 4.0 | 0.00 | 0.00 | 0.12 | 77 | 1013.9 |
| 20260902222701 | 83 | 176 | 2.0 | 5.0 | 0.00 | 0.00 | 0.12 | 77 | 1013.9 |
| 20260902222200 | 83 | 155 | 4.0 | 6.0 | 0.00 | 0.00 | 0.12 | 76 | 1013.8 |
| 20260902221700 | 83 | 123 | 3.0 | 4.0 | 0.00 | 0.00 | 0.12 | 76 | 1013.8 |
| 20260902221201 | 83 | 153 | 2.0 | 4.0 | 0.00 | 0.00 | 0.12 | 76 | 1013.8 |
| 20260902220700 | 83 | 165 | 3.0 | 5.0 | 0.00 | 0.00 | 0.12 | 76 | 1013.9 |
| 20260902220200 | 83 | 150 | 3.0 | 4.0 | 0.00 | 0.00 | 0.12 | 76 | 1013.9 |
| 20260902215700 | 83 | 166 | 4.0 | 5.0 | 0.00 | 0.00 | 0.12 | 75 | 1013.9 |
| 20260902215200 | 83 | 174 | 7.0 | 10.0 | 0.00 | 0.00 | 0.12 | 75 | 1013.9 |
| 20260902214228 | 83 | 117 | 4.0 | 6.0 | 0.00 | 0.00 | 0.12 | 75 | 1014.0 |
| 20260902213700 | 83 | 132 | 2.0 | 5.0 | 0.00 | 0.00 | 0.12 | 76 | 1014.0 |
| 20260902213200 | 83 | 172 | 4.0 | 5.0 | 0.00 | 0.00 | 0.12 | 75 | 1014.0 |
| 20260902212700 | 83 | 109 | 4.0 | 9.0 | 0.00 | 0.00 | 0.12 | 75 | 1014.0 |
| 20260902212201 | 83 | 130 | 6.0 | 9.0 | 0.00 | 0.00 | 0.12 | 76 | 1014.0 |
| 20260902211700 | 83 | 160 | 4.0 | 5.0 | 0.00 | 0.00 | 0.12 | 76 | 1014.0 |
| 20260902210700 | 83 | 97 | 9.0 | 14.0 | 0.00 | 0.00 | 0.12 | 76 | 1014.2 |
| 20260902210200 | 83 | 103 | 4.0 | 9.0 | 0.00 | 0.00 | 0.12 | 76 | 1014.3 |
| 20260902205702 | 83 | 150 | 4.0 | 10.0 | 0.00 | 0.00 | 0.12 | 76 | 1014.4 |
| 20260902205201 | 83 | 92 | 5.0 | 10.0 | 0.00 | 0.00 | 0.12 | 76 | 1014.5 |
| 20260902204701 | 83 | 159 | 6.0 | 8.0 | 0.00 | 0.00 | 0.12 | 76 | 1014.8 |
| 20260902204201 | 83 | 164 | 4.0 | 5.0 | 0.00 | 0.00 | 0.12 | 76 | 1014.8 |
| 20260902203700 | 83 | 169 | 4.0 | 6.0 | 0.00 | 0.00 | 0.12 | 76 | 1014.9 |
| 20260902203201 | 83 | 112 | 4.0 | 7.0 | 0.00 | 0.00 | 0.12 | 75 | 1015.0 |
| 20260902202700 | 83 | 182 | 6.0 | 8.0 | 0.00 | 0.00 | 0.12 | 75 | 1015.2 |
| 20260902202200 | 83 | 156 | 5.0 | 6.0 | 0.00 | 0.00 | 0.12 | 74 | 1015.2 |
| 20260902201702 | 83 | 104 | 5.0 | 9.0 | 0.00 | 0.00 | 0.12 | 74 | 1015.3 |
| 20260902201200 | 83 | 156 | 2.0 | 4.0 | 0.00 | 0.00 | 0.12 | 74 | 1015.2 |
| 20260902200700 | 83 | 165 | 3.0 | 4.0 | 0.00 | 0.00 | 0.12 | 74 | 1015.2 |
| 20260902200200 | 83 | 165 | 4.0 | 6.0 | 0.00 | 0.00 | 0.12 | 74 | 1015.2 |
| 20260902195700 | 83 | 158 | 4.0 | 5.0 | 0.00 | 0.00 | 0.12 | 74 | 1015.3 |
| 20260902195201 | 83 | 146 | 3.0 | 4.0 | 0.00 | 0.00 | 0.12 | 75 | 1015.3 |
| 20260902194701 | 83 | 137 | 3.0 | 4.0 | 0.00 | 0.00 | 0.12 | 74 | 1015.2 |
| 20260902194200 | 82 | 191 | 4.0 | 5.0 | 0.00 | 0.00 | 0.12 | 75 | 1015.2 |
| 20260902193700 | 82 | 151 | 5.0 | 7.0 | 0.00 | 0.00 | 0.12 | 75 | 1015.2 |
| 20260902193201 | 82 | 161 | 7.0 | 10.0 | 0.00 | 0.00 | 0.12 | 77 | 1015.3 |
| 20260902192700 | 82 | 151 | 3.0 | 5.0 | 0.00 | 0.00 | 0.12 | 77 | 1015.2 |
| 20260902192200 | 82 | 152 | 4.0 | 6.0 | 0.00 | 0.00 | 0.12 | 77 | 1015.3 |
| 20260902191700 | 82 | 161 | 4.0 | 8.0 | 0.00 | 0.00 | 0.12 | 78 | 1015.2 |
| 20260902191200 | 82 | 164 | 4.0 | 6.0 | 0.00 | 0.00 | 0.12 | 78 | 1015.4 |
| 20260902190700 | 82 | 142 | 6.0 | 7.0 | 0.00 | 0.00 | 0.12 | 77 | 1015.4 |
| 20260902190201 | 81 | 159 | 6.0 | 9.0 | 0.00 | 0.00 | 0.12 | 77 | 1015.4 |
| 20260902185701 | 81 | 192 | 5.0 | 7.0 | 0.00 | 0.00 | 0.12 | 79 | 1015.2 |
| 20260902185200 | 81 | 183 | 6.0 | 9.0 | 0.00 | 0.00 | 0.12 | 80 | 1015.2 |
| 20260902183200 | 80 | 170 | 7.0 | 9.0 | 0.00 | 0.00 | 0.12 | 81 | 1015.4 |
| 20260902182701 | 80 | 169 | 4.0 | 6.0 | 0.00 | 0.00 | 0.12 | 82 | 1015.4 |
| 20260902182201 | 80 | 164 | 5.0 | 6.0 | 0.00 | 0.00 | 0.12 | 84 | 1015.3 |
| 20260902181703 | 80 | 177 | 6.0 | 7.0 | 0.00 | 0.00 | 0.12 | 83 | 1015.3 |
| 20260902181201 | 80 | 149 | 3.0 | 5.0 | 0.00 | 0.00 | 0.12 | 83 | 1015.4 |
| 20260902180703 | 80 | 170 | 4.0 | 6.0 | 0.00 | 0.00 | 0.12 | 84 | 1015.6 |
| 20260902180200 | 80 | 133 | 4.0 | 6.0 | 0.00 | 0.00 | 0.12 | 84 | 1015.8 |
| 20260902175701 | 79 | 165 | 5.0 | 6.0 | 0.00 | 0.00 | 0.12 | 85 | 1015.9 |
| 20260902175200 | 79 | 145 | 3.0 | 4.0 | 0.00 | 0.00 | 0.12 | 86 | 1016.1 |
| 20260902174700 | 79 | 167 | 4.0 | 7.0 | 0.00 | 0.00 | 0.12 | 86 | 1016.1 |
| 20260902174200 | 79 | 165 | 4.0 | 5.0 | 0.00 | 0.00 | 0.12 | 86 | 1016.1 |
| 20260902173701 | 79 | 167 | 4.0 | 6.0 | 0.00 | 0.00 | 0.12 | 87 | 1016.2 |
| 20260902173201 | 78 | 109 | 2.0 | 3.0 | 0.00 | 0.00 | 0.12 | 87 | 1016.2 |
| 20260902172701 | 78 | 121 | 2.0 | 4.0 | 0.00 | 0.00 | 0.12 | 88 | 1016.3 |
| 20260902172200 | 78 | 125 | 3.0 | 5.0 | 0.00 | 0.00 | 0.12 | 88 | 1016.2 |
| 20260902171701 | 78 | 135 | 3.0 | 5.0 | 0.00 | 0.00 | 0.12 | 88 | 1016.3 |
| 20260902171200 | 78 | 87 | 4.0 | 6.0 | 0.00 | 0.00 | 0.12 | 89 | 1016.4 |
| 20260902170700 | 78 | 130 | 5.0 | 6.0 | 0.00 | 0.00 | 0.12 | 89 | 1016.5 |
| 20260902170201 | 77 | 165 | 2.0 | 3.0 | 0.00 | 0.00 | 0.12 | 90 | 1016.4 |